Columbus AFB, MS

8:19 AM CDT on May 23, 2017 (GMT -0500)
Columbus Air Force Base

Weather History for KCBM - August, 2013

Change the Weather History Date:

Sunday, August 4, 2013

  Actual Average Record
Temperature  
Mean Temperature 82 °F -  
Max Temperature 90 °F 88 °F 102 °F (2010)
Min Temperature 74 °F 70 °F 68 °F (1999)
Cooling Degree Days 16    
Growing Degree Days 32 (Base 50)    
Moisture  
Dew Point 74 °F    
Average Humidity 83    
Maximum Humidity 100    
Minimum Humidity 53    
Precipitation  
Precipitation 0.00 in - - ()
Sea Level Pressure  
Sea Level Pressure 30.06 in    
Wind  
Wind Speed 2 mph (North)    
Max Wind Speed 10 mph    
Max Gust Speed -    
Visibility 9 miles    
Events      
Averages and records for this station are not official NWS values.
T = Trace of Precipitation, MM = Missing Value Source: NWS Daily Summary

Daily Weather History Graph

Daily Weather History Graph

Search for Another Location

Airport or City:

Trip Planner

Search our weather history database for the weather conditions in past years. The results will help you decide how hot, cold, wet, or windy it might be!

Date:

Astronomy

Aug. 04, 2013 Rise Set
Actual Time 6:08 AM CDT 7:50 PM CDT
Civil Twilight 5:41 AM CDT 8:17 PM CDT
Nautical Twilight 5:08 AM CDT 8:50 PM CDT
Astronomical Twilight 4:34 AM CDT 9:24 PM CDT
Moon 4:10 AM CDT (8/4) 6:13 PM CDT (8/4)
Length of Visible Light 14h 36m
Length of Day
13h 42m
Waning Crescent, 4% of the Moon is Illuminated
Aug 4
Waning Crescent
Aug 6
New
Aug 14
First Quarter
Aug 20
Full
Aug 28
Last Quarter

Hourly Weather History & Observations

Time (CDT) Temp. Heat Index Dew Point Humidity Pressure Visibility Wind Dir Wind Speed Gust Speed Precip Events Conditions
12:38 AM 77.0 °F - 77.0 °F 100% 30.05 in 7.0 mi Calm Calm - N/A   Mostly Cloudy
12:58 AM 77.7 °F - 77.7 °F 100% 30.05 in 10.0 mi Calm Calm - N/A   Overcast
1:23 AM 77.0 °F - 77.0 °F 100% 30.05 in 10.0 mi Calm Calm - N/A   Scattered Clouds
1:58 AM 76.3 °F - 75.9 °F 99% 30.04 in 10.0 mi Calm Calm - N/A   Clear
2:58 AM 75.6 °F - 75.6 °F 100% 30.04 in 9.0 mi Calm Calm - N/A   Clear
3:38 AM 75.2 °F - 75.2 °F 100% 30.04 in 4.0 mi Calm Calm - N/A   Clear
3:43 AM 75.2 °F - 75.2 °F 100% 30.04 in 5.0 mi Calm Calm - N/A   Clear
3:58 AM 74.5 °F - 74.5 °F 100% 30.04 in 8.0 mi Calm Calm - N/A   Partly Cloudy
4:58 AM 75.0 °F - 75.0 °F 100% 30.04 in 8.0 mi Calm Calm - N/A   Clear
5:38 AM 75.2 °F - 75.2 °F 100% 30.05 in 8.0 mi Calm Calm - N/A   Partly Cloudy
5:58 AM 74.5 °F - 74.5 °F 100% 30.06 in 8.0 mi Calm Calm - N/A   Partly Cloudy
6:13 AM 75.2 °F - 75.2 °F 100% 30.07 in 7.0 mi Calm Calm - N/A   Mostly Cloudy
6:48 AM 75.2 °F - 75.2 °F 100% 30.08 in 7.0 mi Calm Calm - N/A   Scattered Clouds
6:58 AM 74.8 °F - 74.8 °F 100% 30.09 in 7.0 mi Calm Calm - N/A   Partly Cloudy
7:58 AM 77.4 °F - 75.2 °F 93% 30.09 in 10.0 mi Calm Calm - N/A   Clear
8:42 AM 78.8 °F - 73.4 °F 83% 30.09 in 10.0 mi North 1.2 mph - N/A   Partly Cloudy
8:58 AM 80.1 °F 84.5 °F 73.8 °F 81% 30.09 in 10.0 mi NNW 3.5 mph - N/A   Partly Cloudy
9:23 AM 80.6 °F 85.4 °F 73.4 °F 79% 30.09 in 10.0 mi North 2.3 mph - N/A   Scattered Clouds
9:53 AM 80.6 °F 85.4 °F 73.4 °F 79% 30.09 in 10.0 mi NNE 5.8 mph - N/A   Mostly Cloudy
9:58 AM 81.5 °F 86.9 °F 73.8 °F 77% 30.09 in 10.0 mi North 5.8 mph - N/A   Scattered Clouds
10:58 AM 84.7 °F 91.0 °F 72.9 °F 67% 30.10 in 10.0 mi North 2.3 mph - N/A   Scattered Clouds
11:53 AM 84.2 °F 89.6 °F 71.6 °F 66% 30.09 in 9.0 mi NNW 10.4 mph - N/A   Mostly Cloudy
11:58 AM 84.7 °F 90.7 °F 72.3 °F 66% 30.09 in 10.0 mi North 8.1 mph - N/A   Mostly Cloudy
12:58 PM 86.9 °F 92.9 °F 71.4 °F 60% 30.09 in 10.0 mi Variable 3.5 mph - N/A   Clear
1:58 PM 87.4 °F 93.5 °F 71.4 °F 59% 30.06 in 10.0 mi NNW 4.6 mph - N/A   Partly Cloudy
2:58 PM 89.1 °F 94.1 °F 70.2 °F 53% 30.04 in 10.0 mi NW 10.4 mph - N/A   Clear
3:58 PM 89.4 °F 96.3 °F 71.6 °F 56% 30.04 in 10.0 mi Variable 5.8 mph - N/A   Clear
4:58 PM 89.4 °F 95.8 °F 71.2 °F 55% 30.02 in 9.0 mi NNE 4.6 mph - N/A   Partly Cloudy
5:58 PM 89.1 °F 95.0 °F 70.9 °F 55% 30.01 in 10.0 mi NNW 4.6 mph - N/A   Clear
6:58 PM 87.1 °F 93.6 °F 72.3 °F 61% 30.01 in 10.0 mi NE 2.3 mph - N/A   Partly Cloudy
7:58 PM 83.7 °F 90.4 °F 73.6 °F 72% 30.02 in 10.0 mi Calm Calm - N/A   Clear
8:58 PM 81.0 °F 86.5 °F 74.7 °F 81% 30.04 in 10.0 mi North 4.6 mph - N/A   Clear
9:58 PM 77.0 °F - 73.9 °F 90% 30.06 in 10.0 mi North 2.3 mph - N/A   Clear
10:58 PM 75.9 °F - 72.1 °F 88% 30.07 in 10.0 mi Calm Calm - N/A   Clear
11:58 PM 75.2 °F - 72.7 °F 92% 30.06 in 10.0 mi North 3.5 mph - N/A   Mostly Cloudy